星链-2377 (STARLINK-2377 )

导读 | 星芒AI

STARLINK-2377 是 SpaceX Starlink 卫星互联网项目中的第 2377 颗卫星,属于低地球轨道(LEO)卫星群。该卫星由 SpaceX 设计和发射,旨在为全球用户提供高速、低延迟的互联网服务。它运行在约 550 公里的轨道高度,配备先进通信设备,支持宽带数据传输。STARLINK-2377 与其他 Starlink 卫星协同工作,扩大覆盖范围,提升网络性能,尤其在偏远和网络基础设施薄弱地区发挥重要作用。

基本信息
目录编号:
47797
目录名称:
STARLINK-2377
国际标识:
2021-018L
轨道中心:
EARTH
卫星名称:
星链-2377
卫星全名:
星链-2377 (STARLINK-2377 )
卫星状态:
在轨 (已飞行1694 天)
发射日期:
2021-03-11 UTC
国别 :
美国 (US)
星等 :
--
轨道信息
数据来源 国际轨道数据 AOE轨道数据
星历时间 2025-10-30T03:01:00+0800
12小时前
查看轨道信息
2025-10-28T16:00:00+0800
1天前
查看轨道信息
半长轴 6925.314km 6925.332km
偏心率 0.0001399 0.0001492
轨道倾角 53.052° 53.054°
近地点辐角 91.344° 88.653°
升交点赤经 124.240° 130.792°
平近点角 268.771° 274.716°
近地点 546.21km 546.163km
远地点 548.148km 548.231km
周期 95.591分钟 95.592分钟
每日圈数 15.064116 15.064056
详细信息
固有亮度:
5
最大亮度:
2.5
卫星平台:
Starlink V1.0
覆盖范围:
全球
运营商:
太空探索技术公司
运营商所在国:
美国
制造商(研发单位):
太空探索技术公司
制造商所在国:
美国
使用方式:
暂无
卫星简介
星链(Starlink)计划是由太空探索技术公司(SpaceX)提出的一个巨型低轨卫星互联网星座项目,计划在2019年至2024年间在太空搭建由约1.2万颗卫星组成的“星链”网络,其中1584颗将部署在地球上空550千米处的近地轨道,并从2020年开始工作。该卫星仍在工作。
2D轨道图
3D轨道图
轨道高度分析图
轨道倾角分析图
轨道综合分析图
查看轨道综合分析图